Regional Weather Roundup
Issued by NWS

Home | Current Version | Previous Version | Graphics & Text | Print | Product List | Glossary On
Versions: 1 2 3 4 5 6 7 8 9 10 11 12 13 14 15 16 17 18 19 20 21 22 23 24 25 26 27 28 29 30 31 32 33 34 35 36 37 38 39 40 41 42 43 44 45 46 47 48 49 50
000
ASUS43 KLOT 272103
RWRIL

ILLINOIS REGIONAL WEATHER ROUNDUP
NATIONAL WEATHER SERVICE CHICAGO/ROMEOVILLE IL
400 PM CDT MON MAR 27 2017

NOTE: "FAIR" INDICATES FEW OR NO CLOUDS BELOW 12,000 FEET WITH NO
SIGNIFICANT WEATHER AND/OR OBSTRUCTIONS TO VISIBILITY.

* THESE STATIONS ARE NOT UNDER NWS QUALITY CONTROL. THEY ALSO MAY NOT
  REPORT WEATHER SUCH AS PRECIPITATION OR FOG.

ILZ001-002-007-009-015-016-024-272200-
NORTHWEST ILLINOIS

CITY           SKY/WX    TMP DP  RH WIND       PRES   REMARKS
MOLINE         CLOUDY    53  46  77 N5        29.90S
STERLING*      CLOUDY    52  48  86 N5        29.91S
SAVANNA*       CLOUDY    50  46  84 N3        29.92R
$$

ILZ003-004-008-010-011-017-018-272200-
NORTH CENTRAL ILLINOIS

CITY           SKY/WX    TMP DP  RH WIND       PRES   REMARKS
ROCKFORD       CLOUDY    52  44  74 CALM      29.93F
FREEPORT*      CLOUDY    49  45  86 CALM      29.93S
ROCHELLE*      CLOUDY    51  47  88 CALM      29.91S FOG
DE KALB*       CLOUDY    50  48  94 CALM      29.91S FOG
$$

ILZ005-006-012>014-019>023-272200-
NORTHEAST ILLINOIS

CITY           SKY/WX    TMP DP  RH WIND       PRES   REMARKS
CHICAGO-OHARE  LGT RAIN  49  42  77 NE7       29.91R
CHICAGO-MIDWAY CLOUDY    48  44  86 E6        29.91S
AURORA         CLOUDY    51  48  89 NE8       29.90S FOG
LANSING*       LGT RAIN  46  46 100 NE7       29.91F
WAUKEGAN       CLOUDY    42  40  92 NE8       29.93S
DUPAGE AIRPORT CLOUDY    49  48  97 NE6       29.90S FOG
WHEELING       LGT RAIN  45  43  93 NE6       29.93R
MORRIS*        DRIZZLE   53  50  87 CALM      29.88F
NORTHERLY ISL    N/A     42  40  92 N5          N/A
$$

LMZ740>746-272200-
SOUTHERN LAKE MICHIGAN

STATION/POSITION SKY/WX   TEMP    WIND        PRES    VSBY  WAVE
                          AIR SEA DIR/SP/G                  HT/PER
                          (F)     (DEG/KT/KT) (MB)    (MI)  (FT/S)
HARRISON CRIB              40     360/  3/  3   N/A
BURNHAM HARBOR             41      10/  5/  8   N/A
CALUMET HARBOR             40      20/  5/  6 1012.9R
BURNS HARBOR               41      50/  7/  8 1013.5F
MICHIGAN CITY              40      30/  9/  9   N/A
$$

ILZ025>027-034>036-040-047-049-050-058-095>099-272200-
WEST-CENTRAL ILLINOIS

CITY           SKY/WX    TMP DP  RH WIND       PRES   REMARKS
QUINCY         CLOUDY    57  52  83 N8        29.84F
GALESBURG*     CLOUDY    52  49  88 N9        29.88S
MACOMB*        CLOUDY    55  52  91 N7        29.89S
PITTSFIELD*    CLOUDY    55  53  94 NE6       29.85F
$$

ILZ028>032-037-038-041>044-048-051>054-059>061-272200-
CENTRAL ILLINOIS

CITY           SKY/WX    TMP DP  RH WIND       PRES   REMARKS
PONTIAC        LGT RAIN  55  54  95 NE6       29.88S
BLOOMINGTON    CLOUDY    56  53  90 NE10      29.86F
DECATUR        CLOUDY    57  53  86 E15       29.82F
PEORIA         CLOUDY    56  53  90 NE6       29.87S
SPRINGFIELD    CLOUDY    58  54  86 N9        29.83F
TAYLORVILLE    NOT AVBL
$$

ILZ033-039-045-046-055>057-062-063-272200-
EAST-CENTRAL ILLINOIS

CITY           SKY/WX    TMP DP  RH WIND       PRES   REMARKS
CHAMPAIGN      CLOUDY    59  53  80 E13       29.83F
RANTOUL*       CLOUDY    61  53  75 NE9       29.84F
MATTOON        CLOUDY    57  56  96 E6        29.80F
PARIS*         CLOUDY    56  55  94 E9        29.84S
$$

ILZ079-100>102-272200-
SOUTHWEST ILLINOIS

CITY           SKY/WX    TMP DP  RH WIND       PRES   REMARKS
ALTON          CLOUDY    55  52  88 N12       29.82S
BELLEVILLE     CLOUDY    57  57  99 NW6       29.80S
CAHOKIA*       CLOUDY    57  51  80 N8        29.82R
SPARTA*        CLOUDY    60  56  87 W6        29.81S
$$

ILZ064>066-069>071-074>076-080>082-084>086-088>090-092>094-272200-
SOUTH-CENTRAL ILLINOIS

CITY           SKY/WX    TMP DP  RH WIND       PRES   REMARKS
CARBONDALE     CLOUDY    62  57  83 W6        29.79F
CAIRO*         CLOUDY    61  57  86 S5        29.79S
EFFINGHAM*     CLOUDY    62  58  87 E5        29.80F
MARION         PTSUNNY   66  63  88 SW6       29.80F
MT. VERNON     CLOUDY    62  55  77 SW12      29.79F
CENTRALIA*     CLOUDY    62  58  86 SW6       29.78S
SALEM*         CLOUDY    63  56  79 SW7       29.79S
$$

ILZ067-068-072-073-078-083-087-091-272200-
SOUTHEAST ILLINOIS

CITY           SKY/WX    TMP DP  RH WIND       PRES   REMARKS
LAWRENCEVILLE  PTSUNNY   67  57  70 S9        29.79F
FLORA*         CLOUDY    64  55  73 SW8       29.79S
FAIRFIELD*     CLOUDY    65  55  71 SW5       29.78S
HARRISBURG*    PTSUNNY   60  57  89 W3        29.80F
ROBINSON*      CLOUDY    63  56  79 E5        29.81F
CARMI*         PTSUNNY   60  58  94 S3        29.79F
$$

ABBREVIATIONS USED IN REMARKS
   TC - TEMPERATURE IN CELSIUS
  WCI - WIND CHILL INDEX
   HX - HEAT INDEX
  VSB - VISIBILITY
$$




USA.gov is the U.S. government's official web portal to all federal, state and local government web resources and services.